Waarnemingen

Advertentie
Mijn weer
St-Hubert, België (6476): temperatuur & dauwpunt: 09.10.2019 21:00:00 - 15.10.2019 21:00:00 (CEST)St-Hubert, België (6476): windsnelheid & windstoten: 09.10.2019 21:00:00 - 15.10.2019 21:00:00 (CEST)St-Hubert, België (6476): windrichting: 09.10.2019 21:00:00 - 15.10.2019 21:00:00 (CEST)St-Hubert, België (6476): luchtdruk: 09.10.2019 21:00:00 - 15.10.2019 21:00:00 (CEST)St-Hubert, België (6476): zicht: 09.10.2019 21:00:00 - 15.10.2019 21:00:00 (CEST)
Datum & Tijd tt [°C] td [°C] ff [km/u] ff [kn] fx [km/u] fx [kn] dd ppp [hPa] vv [km]
15.10.2019 21:00:00 - - - - - - - - -
15.10.2019 20:00:00 8,5 7,8 11 6 - - WZW 1009,6 11
15.10.2019 19:00:00 8,9 8,1 14 8 36 19 WZW 1009,1 5
15.10.2019 18:00:00 10,3 9,6 11 6 18 10 ZW 1007,7 2,8
15.10.2019 17:00:00 10,6 9,9 11 6 - - ZZW 1007,5 -
15.10.2019 16:00:00 10,7 10,0 11 6 22 12 ZW 1007,6 4,1
15.10.2019 15:00:00 10,9 10,2 11 6 22 12 ZW 1007,7 9
15.10.2019 14:00:00 11,3 10,4 14 8 - - ZZW 1007,7 20
15.10.2019 13:00:00 11,3 10,5 11 6 25 14 ZW 1007,9 21
15.10.2019 12:00:00 11,1 10,5 14 8 25 14 ZZW 1008,3 2,7
15.10.2019 11:00:00 11,2 10,6 11 6 - - ZW 1007,2 8
15.10.2019 10:00:00 11,1 10,6 7 4 18 10 Z 1007,6 11
15.10.2019 09:00:00 11,0 10,5 11 6 18 10 Z 1007,7 11
15.10.2019 08:00:00 11,1 10,3 7 4 - - ZZW 1007,2 22
15.10.2019 07:00:00 11,4 10,5 11 6 29 16 ZW 1006,9 15
15.10.2019 06:00:00 11,5 9,9 7 4 14 8 Z 1006,7 45
15.10.2019 05:00:00 12,2 10,4 7 4 - - Z 1006,9 45
15.10.2019 04:00:00 12,4 10,5 11 6 18 10 ZZW 1007,4 45
15.10.2019 03:00:00 12,9 10,2 7 4 25 14 ZZW 1007,9 45
15.10.2019 02:00:00 14,2 10,7 11 6 - - ZZW 1008,0 40
15.10.2019 01:00:00 14,9 12,0 14 8 29 16 ZZW 1007,8 30
15.10.2019 00:00:00 15,4 11,9 14 8 25 14 Z 1007,4 35
14.10.2019 23:00:00 16,1 11,9 14 8 - - ZZO 1007,1 35
14.10.2019 22:00:00 16,4 12,2 14 8 29 16 ZZO 1007,2 35
14.10.2019 21:00:00 16,3 12,3 14 8 36 19 Z 1007,9 30
14.10.2019 20:00:00 16,5 12,3 18 10 - - ZZO 1007,7 35
14.10.2019 19:00:00 16,7 12,5 18 10 29 16 ZO 1007,2 40
14.10.2019 18:00:00 17,2 12,3 18 10 32 18 ZZO 1007,5 40
14.10.2019 17:00:00 18,7 12,8 18 10 - - ZZO 1008,2 40
14.10.2019 16:00:00 18,7 13,1 14 8 32 18 ZZO 1008,5 30
14.10.2019 15:00:00 18,3 12,8 18 10 36 19 ZZO 1009,0 29
14.10.2019 14:00:00 18,4 12,5 18 10 - - ZZO 1009,6 30
14.10.2019 13:00:00 18,1 12,4 18 10 29 16 Z 1010,7 35
14.10.2019 12:00:00 17,3 12,3 14 8 32 18 Z 1011,2 35
14.10.2019 11:00:00 15,3 11,8 14 8 - - ZZO 1011,8 29
14.10.2019 10:00:00 13,3 11,4 11 6 25 14 ZZO 1012,8 30
14.10.2019 09:00:00 12,3 10,8 14 8 25 14 ZO 1012,8 30
14.10.2019 08:00:00 12,5 11,1 14 8 - - ZO 1012,8 26
14.10.2019 07:00:00 13,5 12,5 14 8 18 10 OZO 1012,9 22
14.10.2019 06:00:00 12,8 12,6 11 6 14 8 OZO 1013,4 -
14.10.2019 05:00:00 13,3 12,6 4 2 - - ZZO 1013,9 9
14.10.2019 04:00:00 13,3 12,8 4 2 7 4 ZO 1013,9 -
14.10.2019 03:00:00 13,6 13,1 4 2 11 6 ZZO 1014,2 4,3
14.10.2019 02:00:00 13,7 12,7 4 2 - - ZZW 1014,0 15
14.10.2019 01:00:00 14,1 13,0 7 4 14 8 ZW 1013,6 20
14.10.2019 00:00:00 15,0 13,5 11 6 18 10 ZW 1013,3 23
13.10.2019 23:00:00 15,0 13,8 7 4 - - ZW 1013,0 22
13.10.2019 22:00:00 15,6 14,1 14 8 43 23 ZZW 1012,4 12
13.10.2019 21:00:00 17,5 12,9 18 10 36 19 ZW 1011,2 28
13.10.2019 20:00:00 18,1 12,4 18 10 - - Z 1010,2 45
13.10.2019 19:00:00 18,2 12,3 14 8 36 19 ZZW 1009,7 45
13.10.2019 18:00:00 19,3 12,8 18 10 43 23 ZZW 1009,5 40
13.10.2019 17:00:00 20,3 12,6 25 14 - - ZZW 1008,9 35
13.10.2019 16:00:00 20,4 12,6 22 12 47 25 ZZW 1008,9 30
13.10.2019 15:00:00 20,0 13,1 18 10 43 23 Z 1008,9 30
13.10.2019 14:00:00 19,5 13,2 22 12 - - Z 1009,3 29
13.10.2019 13:00:00 18,4 13,5 18 10 43 23 Z 1009,6 30
13.10.2019 12:00:00 16,9 13,1 18 10 40 21 Z 1010,1 30
13.10.2019 11:00:00 14,9 12,7 22 12 - - Z 1010,8 30
13.10.2019 10:00:00 14,4 12,6 14 8 36 19 Z 1010,7 28
13.10.2019 09:00:00 13,6 12,0 18 10 32 18 Z 1011,1 30
13.10.2019 08:00:00 13,4 12,0 22 12 - - Z 1010,9 23
13.10.2019 07:00:00 13,1 12,4 22 12 36 19 Z 1011,3 15
13.10.2019 06:00:00 13,4 12,4 14 8 36 19 Z 1011,3 16
13.10.2019 05:00:00 13,5 12,6 14 8 - - Z 1011,0 12
13.10.2019 04:00:00 13,8 13,0 18 10 32 18 Z 1011,3 11
13.10.2019 03:00:00 13,8 13,1 18 10 32 18 Z 1011,7 -
13.10.2019 02:00:00 13,7 13,0 14 8 - - Z 1011,9 -
13.10.2019 01:00:00 14,0 13,1 11 6 29 16 Z 1012,1 13
13.10.2019 00:00:00 14,0 12,8 14 8 29 16 Z 1012,1 22
12.10.2019 23:00:00 13,6 12,5 14 8 - - Z 1012,1 27
12.10.2019 22:00:00 13,8 12,2 14 8 32 18 Z 1011,9 35
12.10.2019 21:00:00 13,5 11,7 14 8 29 16 Z 1011,8 40
12.10.2019 20:00:00 13,4 11,5 14 8 - - Z 1011,7 40
12.10.2019 19:00:00 13,3 11,0 18 10 36 19 Z 1011,5 40
12.10.2019 18:00:00 13,7 11,0 18 10 36 19 Z 1011,4 40
12.10.2019 17:00:00 13,8 11,4 18 10 - - Z 1011,9 30
12.10.2019 16:00:00 14,3 11,6 18 10 36 19 ZZW 1012,3 35
12.10.2019 15:00:00 14,2 11,2 22 12 43 23 ZZW 1012,8 27
12.10.2019 14:00:00 14,5 11,1 22 12 - - ZZW 1012,8 30
12.10.2019 13:00:00 13,6 10,1 18 10 36 19 ZZW 1013,1 30
12.10.2019 12:00:00 11,3 9,8 14 8 29 16 ZZW 1013,6 26
12.10.2019 11:00:00 10,8 9,6 14 8 - - ZZW 1013,4 22
12.10.2019 10:00:00 10,5 9,5 14 8 36 19 ZW 1013,0 15
12.10.2019 09:00:00 10,3 9,3 18 10 29 16 ZW 1012,8 15
12.10.2019 08:00:00 10,6 9,2 14 8 - - ZW 1012,3 24
12.10.2019 07:00:00 10,5 8,9 14 8 32 18 ZZW 1012,2 45
12.10.2019 06:00:00 10,4 8,7 18 10 32 18 ZZW 1011,9 45
12.10.2019 05:00:00 10,7 8,6 14 8 - - ZZW 1011,9 45
12.10.2019 04:00:00 11,6 8,7 18 10 47 25 ZZW 1011,9 45
12.10.2019 03:00:00 11,6 8,8 22 12 40 21 ZZW 1012,1 45
12.10.2019 02:00:00 11,2 8,8 18 10 - - ZZW 1012,5 45
12.10.2019 01:00:00 11,6 9,1 18 10 40 21 ZZW 1012,9 45
12.10.2019 00:00:00 11,7 9,5 14 8 29 16 ZZW 1013,2 45
11.10.2019 23:00:00 11,7 10,0 14 8 - - ZZW 1013,3 35
11.10.2019 22:00:00 12,2 10,4 14 8 29 16 ZZW 1013,4 35
11.10.2019 21:00:00 12,3 10,5 14 8 29 16 ZZW 1013,5 30
11.10.2019 20:00:00 12,7 10,9 14 8 - - ZZW 1013,7 35
11.10.2019 19:00:00 13,0 10,8 18 10 36 19 ZZW 1013,4 35
11.10.2019 18:00:00 12,8 10,4 22 12 40 21 ZZW 1013,3 40
11.10.2019 17:00:00 12,9 10,4 22 12 - - ZZW 1013,6 35
11.10.2019 16:00:00 12,2 9,8 18 10 40 21 ZZW 1014,4 40
11.10.2019 15:00:00 11,4 9,5 18 10 47 25 ZZW 1015,2 40
11.10.2019 14:00:00 10,9 9,3 22 12 - - ZW 1016,0 30
11.10.2019 13:00:00 10,5 9,1 18 10 36 19 ZW 1016,5 17
11.10.2019 12:00:00 10,5 9,2 22 12 40 21 ZW 1017,0 26
11.10.2019 11:00:00 10,6 9,2 22 12 - - ZZW 1016,9 27
11.10.2019 10:00:00 9,9 9,0 18 10 32 18 ZW 1017,2 12
11.10.2019 09:00:00 9,3 8,4 18 10 36 19 ZZW 1017,0 9
11.10.2019 08:00:00 8,9 8,4 14 8 - - ZW 1017,1 0,2
11.10.2019 07:00:00 8,8 8,4 14 8 32 18 ZZW 1017,5 0,1
11.10.2019 06:00:00 8,2 7,7 14 8 25 14 ZZW 1018,0 -
11.10.2019 05:00:00 8,2 6,8 14 8 - - ZZW 1018,0 19
11.10.2019 04:00:00 7,4 6,2 11 6 25 14 ZW 1018,8 15
11.10.2019 03:00:00 7,9 6,2 14 8 29 16 ZZW 1018,3 21
11.10.2019 02:00:00 7,4 6,1 14 8 - - ZZW 1018,3 20
11.10.2019 01:00:00 7,0 5,9 11 6 25 14 ZW 1019,3 20
11.10.2019 00:00:00 7,6 6,1 11 6 22 12 ZZW 1019,2 24
10.10.2019 23:00:00 7,7 6,3 11 6 - - ZZW 1019,3 24
10.10.2019 22:00:00 8,1 6,6 14 8 29 16 ZZW 1019,1 24
10.10.2019 21:00:00 8,6 7,0 14 8 25 14 ZZW 1019,0 22
10.10.2019 20:00:00 8,5 7,4 14 8 - - ZW 1018,9 17
10.10.2019 19:00:00 9,3 8,3 11 6 22 12 ZW 1018,1 17
10.10.2019 18:00:00 10,0 9,0 11 6 22 12 ZW 1017,7 12
10.10.2019 17:00:00 9,1 8,3 11 6 - - WZW 1017,9 11
10.10.2019 16:00:00 9,1 8,2 14 8 32 18 WZW 1017,7 -
10.10.2019 15:00:00 10,0 7,2 14 8 36 19 WZW 1017,1 30
10.10.2019 14:00:00 11,1 7,1 18 10 - - WZW 1016,5 23
10.10.2019 13:00:00 9,6 5,9 18 10 36 19 WZW 1016,6 35
10.10.2019 12:00:00 8,9 7,1 18 10 36 19 WZW 1016,3 29
10.10.2019 11:00:00 8,0 7,0 18 10 - - WZW 1016,0 17
10.10.2019 10:00:00 7,5 6,4 18 10 29 16 WZW 1015,2 23
10.10.2019 09:00:00 6,9 6,2 18 10 29 16 WZW 1014,1 9
10.10.2019 08:00:00 6,6 5,9 14 8 - - WZW 1013,3 -
10.10.2019 07:00:00 6,2 5,5 18 10 32 18 WZW 1012,5 21
10.10.2019 06:00:00 6,0 5,3 14 8 29 16 WZW 1011,9 28
10.10.2019 05:00:00 6,2 5,4 14 8 - - ZW 1011,2 45
10.10.2019 04:00:00 6,9 5,8 18 10 40 21 ZW 1010,6 40
10.10.2019 03:00:00 7,1 6,1 18 10 40 21 ZW 1010,1 16
10.10.2019 02:00:00 6,9 6,2 18 10 - - ZW 1010,7 10
10.10.2019 01:00:00 6,8 5,8 14 8 40 21 ZW 1011,0 14
10.10.2019 00:00:00 6,9 6,0 18 10 36 19 ZW 1011,3 14
09.10.2019 23:00:00 6,7 5,9 18 10 - - ZW 1011,3 22
09.10.2019 22:00:00 6,1 5,3 11 6 32 18 WZW 1011,7 30
09.10.2019 21:00:00 6,2 5,3 14 8 32 18 WZW 1011,5 45

tt = temperatuur
td = dauwpunt
ff = windsnelheid
fx = windstoten
dd = windrichting
ppp = luchtdruk
vv = zicht

Weerstations in de omgeving